Location: The Saddle
(36.8333°N, 80.3417°W)
Time: 07:08:14
(UTC-04:00)

A-11 Canister half - Pass Details

Date: 02 June 2024
Orbit: 1515 x 1685 km, 47.2° (Epoch: 17 June)

Event Time Altitude Azimuth Distance (km) Brightness Sun altitude
Rises 00:48:26 0° 243° (WSW) 4,863 11.5 -30.5°
Reaches altitude 10° 00:51:37 10° 246° (WSW) 3,857 10.9 -30.6°
Maximum altitude 01:01:26 74° 331° (NNW) 1,639 9.1 -30.8°
Drops below altitude 10° 01:10:56 10° 57° (ENE) 3,731 11.3 -30.9°
Sets 01:13:58 0° 59° (ENE) 4,698 11.9 -30.9°
